Location: Wildcat Hills Observatory
(41.6350°N, 103.6812°W)
Time: 17:29:45
(UTC-06:00)

CZ-2C R/B - Pass Details

Date: 23 June 2018
Orbit: 784 x 871 km, 98.4° (Epoch: 21 July)

Event Time Altitude Azimuth Distance (km) Brightness Sun altitude
Rises 22:12:33 0° 26° (NNE) 3,392 6.2 -14.6°
Reaches altitude 10° 22:15:27 10° 41° (NE) 2,437 5.2 -15.0°
Maximum altitude 22:19:39 23° 93° (E) 1,676 3.9 -15.4°
Enters shadow 22:21:06 21° 116° (ESE) 1,772 3.9 -15.6°
